Year,Month,Day,Hour,Minute,Value (Times are PST for temperature in C)
2007,05,18,00,00,9.40
2007,05,18,00,01,9.40
2007,05,18,00,02,9.30
2007,05,18,00,03,9.30
2007,05,18,00,04,9.30
2007,05,18,00,05,9.30
2007,05,18,00,06,9.30
2007,05,18,00,07,9.30
2007,05,18,00,08,9.30
2007,05,18,00,09,9.30
2007,05,18,00,10,9.20
2007,05,18,00,11,9.20
2007,05,18,00,12,9.20
2007,05,18,00,13,9.20
2007,05,18,00,14,9.20
2007,05,18,00,15,9.20
2007,05,18,00,16,9.20
2007,05,18,00,17,9.20
2007,05,18,00,18,9.20
2007,05,18,00,19,9.20
2007,05,18,00,20,9.10
2007,05,18,00,21,9.10
2007,05,18,00,22,9.10
2007,05,18,00,23,9.10
2007,05,18,00,24,9.10
2007,05,18,00,25,9.10
2007,05,18,00,26,9.10
2007,05,18,00,27,9.00
2007,05,18,00,28,9.00
2007,05,18,00,29,9.00
2007,05,18,00,30,9.00
2007,05,18,00,31,9.00
2007,05,18,00,32,9.00
2007,05,18,00,33,8.90
2007,05,18,00,34,8.90
2007,05,18,00,35,8.90
2007,05,18,00,36,8.90
2007,05,18,00,37,8.90
2007,05,18,00,38,8.90
2007,05,18,00,39,8.90
2007,05,18,00,40,8.90
2007,05,18,00,41,8.90
2007,05,18,00,42,8.90
2007,05,18,00,43,8.90
2007,05,18,00,44,8.90
2007,05,18,00,45,8.90
2007,05,18,00,46,8.90
2007,05,18,00,47,8.90
2007,05,18,00,48,8.90
2007,05,18,00,49,8.90
2007,05,18,00,50,8.90
2007,05,18,00,51,8.80
2007,05,18,00,52,8.80
2007,05,18,00,53,8.80
2007,05,18,00,54,8.80
2007,05,18,00,55,8.80
2007,05,18,00,56,8.80
2007,05,18,00,57,8.80
2007,05,18,00,58,8.80
2007,05,18,00,59,8.70
2007,05,18,01,00,8.70
2007,05,18,01,01,8.70
2007,05,18,01,02,8.70
2007,05,18,01,03,8.70
2007,05,18,01,04,8.70
2007,05,18,01,05,8.70
2007,05,18,01,06,8.70
2007,05,18,01,07,8.70
2007,05,18,01,08,8.70
2007,05,18,01,09,8.70
2007,05,18,01,10,8.70
2007,05,18,01,11,8.60
2007,05,18,01,12,8.60
2007,05,18,01,13,8.60
2007,05,18,01,14,8.60
2007,05,18,01,15,8.60
2007,05,18,01,16,8.60
2007,05,18,01,17,8.60
2007,05,18,01,18,8.60
2007,05,18,01,19,8.60
2007,05,18,01,20,8.60
2007,05,18,01,21,8.60
2007,05,18,01,22,8.60
2007,05,18,01,23,8.60
2007,05,18,01,24,8.60
2007,05,18,01,25,8.60
2007,05,18,01,26,8.60
2007,05,18,01,27,8.60
2007,05,18,01,28,8.60
2007,05,18,01,29,8.50
2007,05,18,01,30,8.50
2007,05,18,01,31,8.50
2007,05,18,01,32,8.50
2007,05,18,01,33,8.50
2007,05,18,01,34,8.50
2007,05,18,01,35,8.50
2007,05,18,01,36,8.50
2007,05,18,01,37,8.50
2007,05,18,01,38,8.40
2007,05,18,01,39,8.40
2007,05,18,01,40,8.40
2007,05,18,01,41,8.40
2007,05,18,01,42,8.40
2007,05,18,01,43,8.40
2007,05,18,01,44,8.40
2007,05,18,01,45,8.40
2007,05,18,01,46,8.30
2007,05,18,01,47,8.30
2007,05,18,01,48,8.30
2007,05,18,01,49,8.30
2007,05,18,01,50,8.30
2007,05,18,01,51,8.30
2007,05,18,01,52,8.30
2007,05,18,01,53,8.30
2007,05,18,01,54,8.40
2007,05,18,01,55,8.40
2007,05,18,01,56,8.40
2007,05,18,01,57,8.40
2007,05,18,01,58,8.40
2007,05,18,01,59,8.40
2007,05,18,02,00,8.40
2007,05,18,02,01,8.40
2007,05,18,02,02,8.40
2007,05,18,02,03,8.40
2007,05,18,02,04,8.40
2007,05,18,02,05,8.30
2007,05,18,02,06,8.30
2007,05,18,02,07,8.30
2007,05,18,02,08,8.30
2007,05,18,02,09,8.30
2007,05,18,02,10,8.30
2007,05,18,02,11,8.30
2007,05,18,02,12,8.30
2007,05,18,02,13,8.30
2007,05,18,02,14,8.20
2007,05,18,02,15,8.20
2007,05,18,02,16,8.20
2007,05,18,02,17,8.20
2007,05,18,02,18,8.10
2007,05,18,02,19,8.10
2007,05,18,02,20,8.10
2007,05,18,02,21,8.10
2007,05,18,02,22,8.10
2007,05,18,02,23,8.10
2007,05,18,02,24,8.10
2007,05,18,02,25,8.10
2007,05,18,02,26,8.10
2007,05,18,02,27,8.10
2007,05,18,02,28,8.10
2007,05,18,02,29,8.00
2007,05,18,02,30,8.00
2007,05,18,02,31,8.00
2007,05,18,02,32,8.00
2007,05,18,02,33,8.10
2007,05,18,02,34,8.10
2007,05,18,02,35,8.10
2007,05,18,02,36,8.10
2007,05,18,02,37,8.10
2007,05,18,02,38,8.10
2007,05,18,02,39,8.00
2007,05,18,02,40,8.00
2007,05,18,02,41,8.00
2007,05,18,02,42,8.00
2007,05,18,02,43,8.00
2007,05,18,02,44,8.00
2007,05,18,02,45,8.00
2007,05,18,02,46,8.00
2007,05,18,02,47,8.00
2007,05,18,02,48,8.00
2007,05,18,02,49,8.00
2007,05,18,02,50,8.00
2007,05,18,02,51,8.00
2007,05,18,02,52,8.00
2007,05,18,02,53,8.00
2007,05,18,02,54,8.00
2007,05,18,02,55,7.90
2007,05,18,02,56,7.90
2007,05,18,02,57,7.90
2007,05,18,02,58,7.90
2007,05,18,02,59,7.90
2007,05,18,03,00,7.90
2007,05,18,03,01,7.90
2007,05,18,03,02,7.90
2007,05,18,03,03,7.90
2007,05,18,03,04,7.90
2007,05,18,03,05,7.90
2007,05,18,03,06,7.90
2007,05,18,03,07,7.90
2007,05,18,03,08,7.80
2007,05,18,03,09,7.80
2007,05,18,03,10,7.80
2007,05,18,03,11,7.80
2007,05,18,03,12,7.80
2007,05,18,03,13,7.80
2007,05,18,03,14,7.80
2007,05,18,03,15,7.80
2007,05,18,03,16,7.80
2007,05,18,03,17,7.80
2007,05,18,03,18,7.80
2007,05,18,03,19,7.80
2007,05,18,03,20,7.80
2007,05,18,03,21,7.80
2007,05,18,03,22,7.80
2007,05,18,03,23,7.80
2007,05,18,03,24,7.80
2007,05,18,03,25,7.70
2007,05,18,03,26,7.70
2007,05,18,03,27,7.70
2007,05,18,03,28,7.70
2007,05,18,03,29,7.70
2007,05,18,03,30,7.70
2007,05,18,03,31,7.70
2007,05,18,03,32,7.70
2007,05,18,03,33,7.70
2007,05,18,03,34,7.70
2007,05,18,03,35,7.70
2007,05,18,03,36,7.70
2007,05,18,03,37,7.60
2007,05,18,03,38,7.60
2007,05,18,03,39,7.60
2007,05,18,03,40,7.60
2007,05,18,03,41,7.60
2007,05,18,03,42,7.60
2007,05,18,03,43,7.60
2007,05,18,03,44,7.60
2007,05,18,03,45,7.60
2007,05,18,03,46,7.60
2007,05,18,03,47,7.60
2007,05,18,03,48,7.60
2007,05,18,03,49,7.60
2007,05,18,03,50,7.60
2007,05,18,03,51,7.60
2007,05,18,03,52,7.60
2007,05,18,03,53,7.60
2007,05,18,03,54,7.60
2007,05,18,03,55,7.60
2007,05,18,03,56,7.60
2007,05,18,03,57,7.60
2007,05,18,03,58,7.60
2007,05,18,03,59,7.60
2007,05,18,04,00,7.60
2007,05,18,04,01,7.60
2007,05,18,04,02,7.60
2007,05,18,04,03,7.60
2007,05,18,04,04,7.70
2007,05,18,04,05,7.70
2007,05,18,04,06,7.70
2007,05,18,04,07,7.80
2007,05,18,04,08,7.80
2007,05,18,04,09,7.70
2007,05,18,04,10,7.70
2007,05,18,04,11,7.70
2007,05,18,04,12,7.70
2007,05,18,04,13,7.70
2007,05,18,04,14,7.70
2007,05,18,04,15,7.70
2007,05,18,04,16,7.70
2007,05,18,04,17,7.70
2007,05,18,04,18,7.70
2007,05,18,04,19,7.70
2007,05,18,04,20,7.70
2007,05,18,04,21,7.70
2007,05,18,04,22,7.70
2007,05,18,04,23,7.60
2007,05,18,04,24,7.60
2007,05,18,04,25,7.60
2007,05,18,04,26,7.50
2007,05,18,04,27,7.50
2007,05,18,04,28,7.50
2007,05,18,04,29,7.40
2007,05,18,04,30,7.40
2007,05,18,04,31,7.40
2007,05,18,04,32,7.40
2007,05,18,04,33,7.40
2007,05,18,04,34,7.40
2007,05,18,04,35,7.40
2007,05,18,04,36,7.30
2007,05,18,04,37,7.30
2007,05,18,04,38,7.30
2007,05,18,04,39,7.30
2007,05,18,04,40,7.30
2007,05,18,04,41,7.30
2007,05,18,04,42,7.30
2007,05,18,04,43,7.30
2007,05,18,04,44,7.30
2007,05,18,04,45,7.20
2007,05,18,04,46,7.20
2007,05,18,04,47,7.20
2007,05,18,04,48,7.20
2007,05,18,04,49,7.20
2007,05,18,04,50,7.20
2007,05,18,04,51,7.30
2007,05,18,04,52,7.30
2007,05,18,04,53,7.30
2007,05,18,04,54,7.30
2007,05,18,04,55,7.30
2007,05,18,04,56,7.30
2007,05,18,04,57,7.30
2007,05,18,04,58,7.30
2007,05,18,04,59,7.30
2007,05,18,05,00,7.30
2007,05,18,05,01,7.30
2007,05,18,05,02,7.20
2007,05,18,05,03,7.20
2007,05,18,05,04,7.20
2007,05,18,05,05,7.20
2007,05,18,05,06,7.20
2007,05,18,05,07,7.20
2007,05,18,05,08,7.20
2007,05,18,05,09,7.20
2007,05,18,05,10,7.20
2007,05,18,05,11,7.20
2007,05,18,05,12,7.20
2007,05,18,05,13,7.20
2007,05,18,05,14,7.20
2007,05,18,05,15,7.20
2007,05,18,05,16,7.20
2007,05,18,05,17,7.10
2007,05,18,05,18,7.10
2007,05,18,05,19,7.10
2007,05,18,05,20,7.10
2007,05,18,05,21,7.10
2007,05,18,05,22,7.10
2007,05,18,05,23,7.10
2007,05,18,05,24,7.10
2007,05,18,05,25,7.10
2007,05,18,05,26,7.10
2007,05,18,05,27,7.10
2007,05,18,05,28,7.10
2007,05,18,05,29,7.10
2007,05,18,05,30,7.10
2007,05,18,05,31,7.10
2007,05,18,05,32,7.20
2007,05,18,05,33,7.20
2007,05,18,05,34,7.20
2007,05,18,05,35,7.20
2007,05,18,05,36,7.20
2007,05,18,05,37,7.20
2007,05,18,05,38,7.20
2007,05,18,05,39,7.20
2007,05,18,05,40,7.20
2007,05,18,05,41,7.20
2007,05,18,05,42,7.20
2007,05,18,05,43,7.20
2007,05,18,05,44,7.20
2007,05,18,05,45,7.20
2007,05,18,05,46,7.20
2007,05,18,05,47,7.20
2007,05,18,05,48,7.20
2007,05,18,05,49,7.20
2007,05,18,05,50,7.20
2007,05,18,05,51,7.20
2007,05,18,05,52,7.20
2007,05,18,05,53,7.20
2007,05,18,05,54,7.20
2007,05,18,05,55,7.30
2007,05,18,05,56,7.30
2007,05,18,05,57,7.30
2007,05,18,05,58,7.30
2007,05,18,05,59,7.30
2007,05,18,06,00,7.30
2007,05,18,06,01,7.30
2007,05,18,06,02,7.20
2007,05,18,06,03,7.20
2007,05,18,06,04,7.20
2007,05,18,06,05,7.20
2007,05,18,06,06,7.20
2007,05,18,06,07,7.30
2007,05,18,06,08,7.30
2007,05,18,06,09,7.30
2007,05,18,06,10,7.30
2007,05,18,06,11,7.30
2007,05,18,06,12,7.30
2007,05,18,06,13,7.20
2007,05,18,06,14,7.20
2007,05,18,06,15,7.20
2007,05,18,06,16,7.20
2007,05,18,06,17,7.20
2007,05,18,06,18,7.20
2007,05,18,06,19,7.20
2007,05,18,06,20,7.20
2007,05,18,06,21,7.20
2007,05,18,06,22,7.20
2007,05,18,06,23,7.20
2007,05,18,06,24,7.20
2007,05,18,06,25,7.20
2007,05,18,06,26,7.20
2007,05,18,06,27,7.20
2007,05,18,06,28,7.20
2007,05,18,06,29,7.30
2007,05,18,06,30,7.30
2007,05,18,06,31,7.30
2007,05,18,06,32,7.30
2007,05,18,06,33,7.30
2007,05,18,06,34,7.30
2007,05,18,06,35,7.30
2007,05,18,06,36,7.40
2007,05,18,06,37,7.40
2007,05,18,06,38,7.40
2007,05,18,06,39,7.50
2007,05,18,06,40,7.50
2007,05,18,06,41,7.60
2007,05,18,06,42,7.60
2007,05,18,06,43,7.60
2007,05,18,06,44,7.60
2007,05,18,06,45,7.70
2007,05,18,06,46,7.70
2007,05,18,06,47,7.70
2007,05,18,06,48,7.80
2007,05,18,06,49,7.80
2007,05,18,06,50,7.90
2007,05,18,06,51,7.90
2007,05,18,06,52,7.90
2007,05,18,06,53,8.00
2007,05,18,06,54,8.10
2007,05,18,06,55,8.10
2007,05,18,06,56,8.10
2007,05,18,06,57,8.20
2007,05,18,06,58,8.20
2007,05,18,06,59,8.20
2007,05,18,07,00,8.20
2007,05,18,07,01,8.30
2007,05,18,07,02,8.30
2007,05,18,07,03,8.40
2007,05,18,07,04,8.40
2007,05,18,07,05,8.40
2007,05,18,07,06,8.50
2007,05,18,07,07,8.50
2007,05,18,07,08,8.60
2007,05,18,07,09,8.60
2007,05,18,07,10,8.60
2007,05,18,07,11,8.70
2007,05,18,07,12,8.70
2007,05,18,07,13,8.80
2007,05,18,07,14,8.80
2007,05,18,07,15,8.90
2007,05,18,07,16,8.90
2007,05,18,07,17,9.00
2007,05,18,07,18,9.10
2007,05,18,07,19,9.20
2007,05,18,07,20,9.20
2007,05,18,07,21,9.30
2007,05,18,07,22,9.40
2007,05,18,07,23,9.40
2007,05,18,07,24,9.50
2007,05,18,07,25,9.50
2007,05,18,07,26,9.60
2007,05,18,07,27,9.60
2007,05,18,07,28,9.70
2007,05,18,07,29,9.70
2007,05,18,07,30,9.80
2007,05,18,07,31,9.80
2007,05,18,07,32,9.90
2007,05,18,07,33,10.00
2007,05,18,07,34,10.00
2007,05,18,07,35,10.10
2007,05,18,07,36,10.20
2007,05,18,07,37,10.20
2007,05,18,07,38,10.30
2007,05,18,07,39,10.30
2007,05,18,07,40,10.30
2007,05,18,07,41,10.40
2007,05,18,07,42,10.40
2007,05,18,07,43,10.40
2007,05,18,07,44,10.40
2007,05,18,07,45,10.40
2007,05,18,07,46,10.50
2007,05,18,07,47,10.60
2007,05,18,07,48,10.70
2007,05,18,07,49,10.70
2007,05,18,07,50,10.80
2007,05,18,07,51,10.90
2007,05,18,07,52,11.00
2007,05,18,07,53,11.10
2007,05,18,07,54,11.20
2007,05,18,07,55,11.40
2007,05,18,07,56,11.50
2007,05,18,07,57,11.60
2007,05,18,07,58,11.70
2007,05,18,07,59,11.90
2007,05,18,08,00,12.00
2007,05,18,08,01,12.10
2007,05,18,08,02,12.20
2007,05,18,08,03,12.30
2007,05,18,08,04,12.30
2007,05,18,08,05,12.40
2007,05,18,08,06,12.40
2007,05,18,08,07,12.50
2007,05,18,08,08,12.50
2007,05,18,08,09,12.50
2007,05,18,08,10,12.50
2007,05,18,08,11,12.50
2007,05,18,08,12,12.60
2007,05,18,08,13,12.60
2007,05,18,08,14,12.60
2007,05,18,08,15,12.60
2007,05,18,08,16,12.60
2007,05,18,08,17,12.60
2007,05,18,08,18,12.60
2007,05,18,08,19,12.50
2007,05,18,08,20,12.50
2007,05,18,08,21,12.40
2007,05,18,08,22,12.40
2007,05,18,08,23,12.40
2007,05,18,08,24,12.40
2007,05,18,08,25,12.50
2007,05,18,08,26,12.50
2007,05,18,08,27,12.40
2007,05,18,08,28,12.40
2007,05,18,08,29,12.40
2007,05,18,08,30,12.50
2007,05,18,08,31,12.50
2007,05,18,08,32,12.60
2007,05,18,08,33,12.60
2007,05,18,08,34,12.50
2007,05,18,08,35,12.40
2007,05,18,08,36,12.40
2007,05,18,08,37,12.40
2007,05,18,08,38,12.30
2007,05,18,08,39,12.20
2007,05,18,08,40,12.20
2007,05,18,08,41,12.20
2007,05,18,08,42,12.20
2007,05,18,08,43,12.20
2007,05,18,08,44,12.30
2007,05,18,08,45,12.20
2007,05,18,08,46,12.20
2007,05,18,08,47,12.20
2007,05,18,08,48,12.20
2007,05,18,08,49,12.20
2007,05,18,08,50,12.20
2007,05,18,08,51,12.20
2007,05,18,08,52,12.10
2007,05,18,08,53,12.10
2007,05,18,08,54,12.10
2007,05,18,08,55,12.20
2007,05,18,08,56,12.20
2007,05,18,08,57,12.20
2007,05,18,08,58,12.30
2007,05,18,08,59,12.30
2007,05,18,09,00,12.30
2007,05,18,09,01,12.40
2007,05,18,09,02,12.50
2007,05,18,09,03,12.60
2007,05,18,09,04,12.70
2007,05,18,09,05,12.70
2007,05,18,09,06,12.70
2007,05,18,09,07,12.70
2007,05,18,09,08,12.70
2007,05,18,09,09,12.70
2007,05,18,09,10,12.70
2007,05,18,09,11,12.70
2007,05,18,09,12,12.70
2007,05,18,09,13,12.70
2007,05,18,09,14,12.80
2007,05,18,09,15,12.80
2007,05,18,09,16,12.90
2007,05,18,09,17,13.00
2007,05,18,09,18,13.00
2007,05,18,09,19,13.10
2007,05,18,09,20,13.10
2007,05,18,09,21,13.20
2007,05,18,09,22,13.20
2007,05,18,09,23,13.20
2007,05,18,09,24,13.10
2007,05,18,09,25,13.10
2007,05,18,09,26,13.10
2007,05,18,09,27,13.00
2007,05,18,09,28,12.90
2007,05,18,09,29,12.80
2007,05,18,09,30,12.80
2007,05,18,09,31,12.80
2007,05,18,09,32,12.80
2007,05,18,09,33,12.90
2007,05,18,09,34,12.90
2007,05,18,09,35,12.90
2007,05,18,09,36,12.90
2007,05,18,09,37,12.90
2007,05,18,09,38,12.90
2007,05,18,09,39,12.90
2007,05,18,09,40,12.90
2007,05,18,09,41,12.90
2007,05,18,09,42,12.80
2007,05,18,09,43,12.90
2007,05,18,09,44,12.90
2007,05,18,09,45,13.00
2007,05,18,09,46,13.10
2007,05,18,09,47,13.10
2007,05,18,09,48,13.10
2007,05,18,09,49,13.10
2007,05,18,09,50,13.10
2007,05,18,09,51,13.10
2007,05,18,09,52,13.00
2007,05,18,09,53,13.00
2007,05,18,09,54,13.10
2007,05,18,09,55,13.10
2007,05,18,09,56,13.10
2007,05,18,09,57,13.20
2007,05,18,09,58,13.20
2007,05,18,09,59,13.20
2007,05,18,10,00,13.20
2007,05,18,10,01,13.20
2007,05,18,10,02,13.20
2007,05,18,10,03,13.30
2007,05,18,10,04,13.30
2007,05,18,10,05,13.20
2007,05,18,10,06,13.20
2007,05,18,10,07,13.20
2007,05,18,10,08,13.20
2007,05,18,10,09,13.20
2007,05,18,10,10,13.20
2007,05,18,10,11,13.30
2007,05,18,10,12,13.30
2007,05,18,10,13,13.30
2007,05,18,10,14,13.30
2007,05,18,10,15,13.40
2007,05,18,10,16,13.50
2007,05,18,10,17,13.60
2007,05,18,10,18,13.70
2007,05,18,10,19,13.70
2007,05,18,10,20,13.70
2007,05,18,10,21,13.80
2007,05,18,10,22,13.80
2007,05,18,10,23,13.70
2007,05,18,10,24,13.70
2007,05,18,10,25,13.80
2007,05,18,10,26,13.80
2007,05,18,10,27,13.80
2007,05,18,10,28,13.70
2007,05,18,10,29,13.60
2007,05,18,10,30,13.60
2007,05,18,10,31,13.60
2007,05,18,10,32,13.60
2007,05,18,10,33,13.80
2007,05,18,10,34,13.90
2007,05,18,10,35,14.00
2007,05,18,10,36,14.10
2007,05,18,10,37,14.20
2007,05,18,10,38,14.20
2007,05,18,10,39,14.30
2007,05,18,10,40,14.30
2007,05,18,10,41,14.30
2007,05,18,10,42,14.20
2007,05,18,10,43,14.20
2007,05,18,10,44,14.30
2007,05,18,10,45,14.40
2007,05,18,10,46,14.40
2007,05,18,10,47,14.40
2007,05,18,10,48,14.30
2007,05,18,10,49,14.20
2007,05,18,10,50,14.20
2007,05,18,10,51,14.20
2007,05,18,10,52,14.30
2007,05,18,10,53,14.40
2007,05,18,10,54,14.50
2007,05,18,10,55,14.50
2007,05,18,10,56,14.40
2007,05,18,10,57,14.30
2007,05,18,10,58,14.30
2007,05,18,10,59,14.10
2007,05,18,11,00,14.00
2007,05,18,11,01,14.00
2007,05,18,11,02,13.90
2007,05,18,11,03,13.80
2007,05,18,11,04,13.90
2007,05,18,11,05,13.80
2007,05,18,11,06,13.80
2007,05,18,11,07,13.80
2007,05,18,11,08,13.80
2007,05,18,11,09,13.90
2007,05,18,11,10,13.90
2007,05,18,11,11,14.00
2007,05,18,11,12,14.10
2007,05,18,11,13,14.20
2007,05,18,11,14,14.30
2007,05,18,11,15,14.30
2007,05,18,11,16,14.20
2007,05,18,11,17,14.20
2007,05,18,11,18,14.20
2007,05,18,11,19,14.30
2007,05,18,11,20,14.30
2007,05,18,11,21,14.40
2007,05,18,11,22,14.50
2007,05,18,11,23,14.50
2007,05,18,11,24,14.60
2007,05,18,11,25,14.60
2007,05,18,11,26,14.70
2007,05,18,11,27,14.70
2007,05,18,11,28,14.60
2007,05,18,11,29,14.50
2007,05,18,11,30,14.40
2007,05,18,11,31,14.30
2007,05,18,11,32,14.30
2007,05,18,11,33,14.20
2007,05,18,11,34,14.30
2007,05,18,11,35,14.30
2007,05,18,11,36,14.30
2007,05,18,11,37,14.30
2007,05,18,11,38,14.30
2007,05,18,11,39,14.20
2007,05,18,11,40,14.10
2007,05,18,11,41,14.00
2007,05,18,11,42,14.00
2007,05,18,11,43,13.90
2007,05,18,11,44,13.80
2007,05,18,11,45,13.80
2007,05,18,11,46,13.80
2007,05,18,11,47,13.80
2007,05,18,11,48,13.80
2007,05,18,11,49,13.70
2007,05,18,11,50,13.80
2007,05,18,11,51,13.80
2007,05,18,11,52,13.90
2007,05,18,11,53,13.90
2007,05,18,11,54,13.80
2007,05,18,11,55,13.80
2007,05,18,11,56,13.70
2007,05,18,11,57,13.70
2007,05,18,11,58,13.70
2007,05,18,11,59,13.60
2007,05,18,12,00,13.60
2007,05,18,12,01,13.60
2007,05,18,12,02,13.60
2007,05,18,12,03,13.60
2007,05,18,12,04,13.60
2007,05,18,12,05,13.50
2007,05,18,12,06,13.50
2007,05,18,12,07,13.40
2007,05,18,12,08,13.40
2007,05,18,12,09,13.50
2007,05,18,12,10,13.50
2007,05,18,12,11,13.60
2007,05,18,12,12,13.60
2007,05,18,12,13,13.70
2007,05,18,12,14,13.60
2007,05,18,12,15,13.60
2007,05,18,12,16,13.70
2007,05,18,12,17,13.70
2007,05,18,12,18,13.70
2007,05,18,12,19,13.70
2007,05,18,12,20,13.80
2007,05,18,12,21,13.80
2007,05,18,12,22,13.80
2007,05,18,12,23,13.90
2007,05,18,12,24,13.90
2007,05,18,12,25,14.00
2007,05,18,12,26,14.10
2007,05,18,12,27,14.10
2007,05,18,12,28,14.20
2007,05,18,12,29,14.20
2007,05,18,12,30,14.20
2007,05,18,12,31,14.20
2007,05,18,12,32,14.20
2007,05,18,12,33,14.20
2007,05,18,12,34,14.20
2007,05,18,12,35,14.10
2007,05,18,12,36,14.10
2007,05,18,12,37,14.10
2007,05,18,12,38,14.10
2007,05,18,12,39,14.00
2007,05,18,12,40,14.00
2007,05,18,12,41,14.00
2007,05,18,12,42,14.00
2007,05,18,12,43,13.90
2007,05,18,12,44,13.90
2007,05,18,12,45,13.90
2007,05,18,12,46,13.90
2007,05,18,12,47,13.90
2007,05,18,12,48,13.90
2007,05,18,12,49,13.90
2007,05,18,12,50,13.90
2007,05,18,12,51,13.90
2007,05,18,12,52,14.00
2007,05,18,12,53,14.00
2007,05,18,12,54,14.10
2007,05,18,12,55,14.10
2007,05,18,12,56,14.00
2007,05,18,12,57,14.10
2007,05,18,12,58,14.10
2007,05,18,12,59,14.10
2007,05,18,13,00,14.10
2007,05,18,13,01,14.10
2007,05,18,13,02,14.10
2007,05,18,13,03,14.10
2007,05,18,13,04,14.10
2007,05,18,13,05,14.10
2007,05,18,13,06,14.00
2007,05,18,13,07,14.00
2007,05,18,13,08,14.10
2007,05,18,13,09,14.00
2007,05,18,13,10,14.00
2007,05,18,13,11,14.00
2007,05,18,13,12,14.00
2007,05,18,13,13,13.90
2007,05,18,13,14,13.90
2007,05,18,13,15,13.90
2007,05,18,13,16,13.90
2007,05,18,13,17,13.90
2007,05,18,13,18,13.90
2007,05,18,13,19,13.90
2007,05,18,13,20,13.90
2007,05,18,13,21,13.90
2007,05,18,13,22,13.90
2007,05,18,13,23,13.90
2007,05,18,13,24,13.90
2007,05,18,13,25,13.90
2007,05,18,13,26,14.00
2007,05,18,13,27,14.00
2007,05,18,13,28,14.00
2007,05,18,13,29,14.00
2007,05,18,13,30,13.90
2007,05,18,13,31,13.90
2007,05,18,13,32,13.90
2007,05,18,13,33,13.80
2007,05,18,13,34,13.80
2007,05,18,13,35,13.70
2007,05,18,13,36,13.70
2007,05,18,13,37,13.70
2007,05,18,13,38,13.70
2007,05,18,13,39,13.70
2007,05,18,13,40,13.70
2007,05,18,13,41,13.70
2007,05,18,13,42,13.80
2007,05,18,13,43,13.80
2007,05,18,13,44,13.80
2007,05,18,13,45,13.80
2007,05,18,13,46,13.80
2007,05,18,13,47,13.80
2007,05,18,13,48,13.80
2007,05,18,13,49,13.80
2007,05,18,13,50,13.80
2007,05,18,13,51,13.80
2007,05,18,13,52,13.80
2007,05,18,13,53,13.80
2007,05,18,13,54,13.90
2007,05,18,13,55,13.90
2007,05,18,13,56,13.90
2007,05,18,13,57,14.00
2007,05,18,13,58,14.00
2007,05,18,13,59,14.10
2007,05,18,14,00,14.10
2007,05,18,14,01,14.20
2007,05,18,14,02,14.30
2007,05,18,14,03,14.30
2007,05,18,14,04,14.40
2007,05,18,14,05,14.40
2007,05,18,14,06,14.50
2007,05,18,14,07,14.50
2007,05,18,14,08,14.60
2007,05,18,14,09,14.60
2007,05,18,14,10,14.60
2007,05,18,14,11,14.60
2007,05,18,14,12,14.70
2007,05,18,14,13,14.70
2007,05,18,14,14,14.80
2007,05,18,14,15,14.90
2007,05,18,14,16,15.00
2007,05,18,14,17,15.00
2007,05,18,14,18,15.00
2007,05,18,14,19,15.00
2007,05,18,14,20,15.00
2007,05,18,14,21,15.00
2007,05,18,14,22,15.00
2007,05,18,14,23,15.00
2007,05,18,14,24,15.00
2007,05,18,14,25,15.00
2007,05,18,14,26,15.00
2007,05,18,14,27,15.10
2007,05,18,14,28,15.10
2007,05,18,14,29,15.10
2007,05,18,14,30,15.00
2007,05,18,14,31,15.00
2007,05,18,14,32,15.00
2007,05,18,14,33,15.00
2007,05,18,14,34,15.00
2007,05,18,14,35,15.00
2007,05,18,14,36,14.90
2007,05,18,14,37,15.00
2007,05,18,14,38,15.00
2007,05,18,14,39,15.00
2007,05,18,14,40,15.00
2007,05,18,14,41,15.00
2007,05,18,14,42,15.00
2007,05,18,14,43,15.00
2007,05,18,14,44,15.00
2007,05,18,14,45,15.00
2007,05,18,14,46,15.00
2007,05,18,14,47,15.00
2007,05,18,14,48,15.00
2007,05,18,14,49,14.90
2007,05,18,14,50,15.00
2007,05,18,14,51,15.00
2007,05,18,14,52,15.00
2007,05,18,14,53,15.00
2007,05,18,14,54,15.00
2007,05,18,14,55,15.00
2007,05,18,14,56,15.00
2007,05,18,14,57,15.00
2007,05,18,14,58,15.00
2007,05,18,14,59,15.00
2007,05,18,15,00,15.00
2007,05,18,15,01,15.10
2007,05,18,15,02,15.20
2007,05,18,15,03,15.10
2007,05,18,15,04,15.00
2007,05,18,15,05,15.00
2007,05,18,15,06,15.00
2007,05,18,15,07,14.90
2007,05,18,15,08,14.80
2007,05,18,15,09,14.80
2007,05,18,15,10,14.70
2007,05,18,15,11,14.70
2007,05,18,15,12,14.70
2007,05,18,15,13,14.60
2007,05,18,15,14,14.60
2007,05,18,15,15,14.60
2007,05,18,15,16,14.60
2007,05,18,15,17,14.50
2007,05,18,15,18,14.50
2007,05,18,15,19,14.50
2007,05,18,15,20,14.50
2007,05,18,15,21,14.50
2007,05,18,15,22,14.50
2007,05,18,15,23,14.50
2007,05,18,15,24,14.50
2007,05,18,15,25,14.50
2007,05,18,15,26,14.50
2007,05,18,15,27,14.50
2007,05,18,15,28,14.50
2007,05,18,15,29,14.60
2007,05,18,15,30,14.60
2007,05,18,15,31,14.60
2007,05,18,15,32,14.60
2007,05,18,15,33,14.60
2007,05,18,15,34,14.60
2007,05,18,15,35,14.60
2007,05,18,15,36,14.70
2007,05,18,15,37,14.70
2007,05,18,15,38,14.70
2007,05,18,15,39,14.70
2007,05,18,15,40,14.70
2007,05,18,15,41,14.70
2007,05,18,15,42,14.70
2007,05,18,15,43,14.70
2007,05,18,15,44,14.70
2007,05,18,15,45,14.70
2007,05,18,15,46,14.80
2007,05,18,15,47,14.80
2007,05,18,15,48,14.80
2007,05,18,15,49,14.80
2007,05,18,15,50,14.80
2007,05,18,15,51,14.80
2007,05,18,15,52,14.80
2007,05,18,15,53,14.80
2007,05,18,15,54,14.70
2007,05,18,15,55,14.70
2007,05,18,15,56,14.70
2007,05,18,15,57,14.70
2007,05,18,15,58,14.70
2007,05,18,15,59,14.70
2007,05,18,16,00,14.70
2007,05,18,16,01,14.70
2007,05,18,16,02,14.60
2007,05,18,16,03,14.60
2007,05,18,16,04,14.60
2007,05,18,16,05,14.60
2007,05,18,16,06,14.50
2007,05,18,16,07,14.40
2007,05,18,16,08,14.40
2007,05,18,16,09,14.30
2007,05,18,16,10,14.30
2007,05,18,16,11,14.30
2007,05,18,16,12,14.20
2007,05,18,16,13,14.20
2007,05,18,16,14,14.10
2007,05,18,16,15,14.10
2007,05,18,16,16,14.00
2007,05,18,16,17,14.00
2007,05,18,16,18,13.90
2007,05,18,16,19,13.90
2007,05,18,16,20,13.90
2007,05,18,16,21,13.90
2007,05,18,16,22,13.90
2007,05,18,16,23,13.90
2007,05,18,16,24,13.90
2007,05,18,16,25,13.80
2007,05,18,16,26,13.80
2007,05,18,16,27,13.70
2007,05,18,16,28,13.70
2007,05,18,16,29,13.60
2007,05,18,16,30,13.60
2007,05,18,16,31,13.60
2007,05,18,16,32,13.50
2007,05,18,16,33,13.50
2007,05,18,16,34,13.40
2007,05,18,16,35,13.40
2007,05,18,16,36,13.40
2007,05,18,16,37,13.40
2007,05,18,16,38,13.40
2007,05,18,16,39,13.30
2007,05,18,16,40,13.30
2007,05,18,16,41,13.30
2007,05,18,16,42,13.30
2007,05,18,16,43,13.30
2007,05,18,16,44,13.30
2007,05,18,16,45,13.30
2007,05,18,16,46,13.30
2007,05,18,16,47,13.30
2007,05,18,16,48,13.30
2007,05,18,16,49,13.30
2007,05,18,16,50,13.30
2007,05,18,16,51,13.20
2007,05,18,16,52,13.20
2007,05,18,16,53,13.20
2007,05,18,16,54,13.20
2007,05,18,16,55,13.20
2007,05,18,16,56,13.20
2007,05,18,16,57,13.20
2007,05,18,16,58,13.20
2007,05,18,16,59,13.20
2007,05,18,17,00,13.20
2007,05,18,17,01,13.20
2007,05,18,17,02,13.20
2007,05,18,17,03,13.20
2007,05,18,17,04,13.20
2007,05,18,17,05,13.20
2007,05,18,17,06,13.20
2007,05,18,17,07,13.20
2007,05,18,17,08,13.20
2007,05,18,17,09,13.20
2007,05,18,17,10,13.20
2007,05,18,17,11,13.20
2007,05,18,17,12,13.10
2007,05,18,17,13,13.10
2007,05,18,17,14,13.00
2007,05,18,17,15,13.00
2007,05,18,17,16,12.90
2007,05,18,17,17,12.90
2007,05,18,17,18,12.90
2007,05,18,17,19,12.80
2007,05,18,17,20,12.80
2007,05,18,17,21,12.70
2007,05,18,17,22,12.60
2007,05,18,17,23,12.60
2007,05,18,17,24,12.50
2007,05,18,17,25,12.50
2007,05,18,17,26,12.40
2007,05,18,17,27,12.40
2007,05,18,17,28,12.40
2007,05,18,17,29,12.40
2007,05,18,17,30,12.40
2007,05,18,17,31,12.40
2007,05,18,17,32,12.40
2007,05,18,17,33,12.40
2007,05,18,17,34,12.40
2007,05,18,17,35,12.40
2007,05,18,17,36,12.40
2007,05,18,17,37,12.40
2007,05,18,17,38,12.40
2007,05,18,17,39,12.30